TimeCDT,TemperatureF,Dew PointF,Humidity,Sea Level PressureIn,VisibilityMPH,Wind Direction,Wind SpeedMPH,Gust SpeedMPH,PrecipitationIn,Events,Conditions,WindDirDegrees,DateUTC
12:15 AM,59.9,55.9,87,29.98,10.0,Calm,Calm,-,N/A,,Clear,0,2013-07-24 05:15:00
12:35 AM,59.2,56.5,91,29.98,10.0,Calm,Calm,-,N/A,,Clear,0,2013-07-24 05:35:00
12:55 AM,58.5,56.5,93,29.98,10.0,Calm,Calm,-,N/A,,Clear,0,2013-07-24 05:55:00
1:15 AM,58.5,56.5,93,29.98,10.0,Calm,Calm,-,N/A,,Clear,0,2013-07-24 06:15:00
1:35 AM,58.3,56.3,93,29.98,10.0,Calm,Calm,-,N/A,,Clear,0,2013-07-24 06:35:00
1:55 AM,57.7,56.3,95,29.97,10.0,Calm,Calm,-,N/A,,Clear,0,2013-07-24 06:55:00
2:15 AM,56.7,55.4,96,29.98,10.0,Calm,Calm,-,N/A,,Clear,0,2013-07-24 07:15:00
2:35 AM,57.4,56.1,96,29.99,10.0,Calm,Calm,-,N/A,,Clear,0,2013-07-24 07:35:00
2:55 AM,58.1,56.5,94,29.99,10.0,Calm,Calm,-,N/A,,Clear,0,2013-07-24 07:55:00
3:15 AM,58.1,56.3,94,29.98,10.0,Calm,Calm,-,N/A,,Clear,0,2013-07-24 08:15:00
3:35 AM,57.4,55.8,94,29.98,10.0,Calm,Calm,-,N/A,,Clear,0,2013-07-24 08:35:00
3:55 AM,56.5,55.0,95,29.98,10.0,Calm,Calm,-,N/A,,Clear,0,2013-07-24 08:55:00
4:15 AM,56.5,55.2,96,29.99,10.0,Calm,Calm,-,N/A,,Clear,0,2013-07-24 09:15:00
4:35 AM,56.3,54.9,95,30.00,10.0,Calm,Calm,-,N/A,,Clear,0,2013-07-24 09:35:00
4:55 AM,56.5,54.7,94,30.01,10.0,Calm,Calm,-,N/A,,Clear,0,2013-07-24 09:55:00
5:15 AM,54.5,53.1,95,30.01,10.0,Calm,Calm,-,N/A,,Clear,0,2013-07-24 10:15:00
5:35 AM,55.6,54.5,96,30.01,10.0,NNW,3.5,-,N/A,,Clear,340,2013-07-24 10:35:00
5:55 AM,55.6,54.3,96,30.02,10.0,Calm,Calm,-,N/A,,Clear,0,2013-07-24 10:55:00
6:15 AM,55.9,54.3,94,30.03,10.0,Calm,Calm,-,N/A,,Clear,0,2013-07-24 11:15:00
6:35 AM,56.7,54.5,92,30.02,10.0,Calm,Calm,-,N/A,,Clear,0,2013-07-24 11:35:00
6:55 AM,58.1,55.6,91,30.02,10.0,Calm,Calm,-,N/A,,Clear,0,2013-07-24 11:55:00
7:15 AM,59.9,56.5,88,30.03,10.0,Calm,Calm,-,N/A,,Clear,0,2013-07-24 12:15:00
7:35 AM,61.7,56.7,84,30.04,10.0,Calm,Calm,-,N/A,,Clear,0,2013-07-24 12:35:00
7:55 AM,62.6,54.9,76,30.04,10.0,Calm,Calm,-,N/A,,Clear,0,2013-07-24 12:55:00
8:15 AM,64.2,54.7,71,30.04,10.0,NNE,4.6,-,N/A,,Clear,30,2013-07-24 13:15:00
8:35 AM,64.8,53.6,67,30.04,10.0,NNE,3.5,-,N/A,,Clear,20,2013-07-24 13:35:00
8:55 AM,66.6,53.2,62,30.04,10.0,NE,6.9,-,N/A,,Clear,50,2013-07-24 13:55:00
9:15 AM,67.3,53.4,61,30.05,10.0,ENE,8.1,-,N/A,,Scattered Clouds,70,2013-07-24 14:15:00
9:35 AM,67.8,52.2,57,30.04,10.0,ENE,8.1,-,N/A,,Scattered Clouds,70,2013-07-24 14:35:00
9:55 AM,68.0,51.6,56,30.04,10.0,ENE,6.9,-,N/A,,Clear,70,2013-07-24 14:55:00
10:15 AM,69.6,51.8,53,30.04,10.0,ENE,5.8,-,N/A,,Clear,60,2013-07-24 15:15:00
10:35 AM,70.2,52.3,53,30.04,10.0,East,9.2,-,N/A,,Clear,90,2013-07-24 15:35:00
10:55 AM,70.2,51.3,51,30.05,10.0,East,4.6,-,N/A,,Clear,80,2013-07-24 15:55:00
11:15 AM,71.2,50.9,49,30.05,10.0,ENE,6.9,-,N/A,,Scattered Clouds,70,2013-07-24 16:15:00
11:35 AM,71.6,50.4,47,30.05,10.0,East,8.1,-,N/A,,Clear,80,2013-07-24 16:35:00
11:55 AM,72.7,50.7,46,30.06,10.0,NE,5.8,-,N/A,,Clear,40,2013-07-24 16:55:00
12:15 PM,73.2,50.4,44,30.05,10.0,ENE,5.8,-,N/A,,Clear,60,2013-07-24 17:15:00
12:35 PM,73.9,50.7,44,30.05,10.0,Calm,Calm,-,N/A,,Scattered Clouds,0,2013-07-24 17:35:00
12:55 PM,74.3,51.1,44,30.05,10.0,East,9.2,-,N/A,,Scattered Clouds,80,2013-07-24 17:55:00
1:15 PM,74.7,50.7,43,30.04,10.0,North,5.8,-,N/A,,Scattered Clouds,10,2013-07-24 18:15:00
1:35 PM,74.7,50.0,42,30.04,10.0,NE,5.8,-,N/A,,Scattered Clouds,50,2013-07-24 18:35:00
1:55 PM,75.4,48.6,39,30.04,10.0,North,4.6,-,N/A,,Scattered Clouds,10,2013-07-24 18:55:00
2:15 PM,76.3,50.0,40,30.04,10.0,NE,5.8,-,N/A,,Clear,40,2013-07-24 19:15:00
2:35 PM,75.4,48.7,39,30.04,10.0,NNE,4.6,-,N/A,,Clear,30,2013-07-24 19:35:00
2:55 PM,76.3,49.5,39,30.04,10.0,North,4.6,-,N/A,,Clear,360,2013-07-24 19:55:00
3:15 PM,76.5,49.1,38,30.03,10.0,NE,5.8,-,N/A,,Clear,40,2013-07-24 20:15:00
3:35 PM,75.9,48.6,38,30.03,10.0,East,3.5,-,N/A,,Clear,80,2013-07-24 20:35:00
3:55 PM,76.3,48.7,38,30.03,10.0,North,3.5,-,N/A,,Clear,360,2013-07-24 20:55:00
4:15 PM,76.1,48.7,38,30.02,10.0,NE,4.6,-,N/A,,Clear,40,2013-07-24 21:15:00
4:35 PM,75.9,48.9,38,30.02,10.0,ENE,5.8,-,N/A,,Clear,70,2013-07-24 21:35:00
4:55 PM,75.6,48.4,38,30.02,10.0,Calm,Calm,-,N/A,,Clear,0,2013-07-24 21:55:00
5:15 PM,75.7,49.8,40,30.02,10.0,East,5.8,-,N/A,,Clear,80,2013-07-24 22:15:00
5:35 PM,75.4,50.7,42,30.03,10.0,East,6.9,-,N/A,,Clear,80,2013-07-24 22:35:00
5:55 PM,74.5,49.6,42,30.02,10.0,NE,4.6,-,N/A,,Scattered Clouds,50,2013-07-24 22:55:00
6:15 PM,73.9,49.3,42,30.03,10.0,NE,4.6,-,N/A,,Scattered Clouds,50,2013-07-24 23:15:00
6:35 PM,73.6,49.1,42,30.03,10.0,NE,3.5,-,N/A,,Clear,40,2013-07-24 23:35:00
6:55 PM,72.9,49.1,43,30.04,10.0,ENE,3.5,-,N/A,,Clear,60,2013-07-24 23:55:00
7:15 PM,71.8,48.9,44,30.04,10.0,Calm,Calm,-,N/A,,Clear,0,2013-07-25 00:15:00
7:35 PM,69.8,50.4,50,30.04,10.0,Calm,Calm,-,N/A,,Clear,0,2013-07-25 00:35:00
7:55 PM,68.5,51.1,54,30.04,10.0,East,3.5,-,N/A,,Clear,80,2013-07-25 00:55:00
8:15 PM,67.6,50.0,53,30.04,10.0,East,4.6,-,N/A,,Clear,80,2013-07-25 01:15:00
8:35 PM,66.0,50.5,57,30.04,10.0,East,5.8,-,N/A,,Clear,80,2013-07-25 01:35:00
8:55 PM,64.8,51.1,61,30.04,10.0,East,5.8,-,N/A,,Clear,80,2013-07-25 01:55:00
9:15 PM,63.5,51.6,65,30.05,10.0,East,3.5,-,N/A,,Clear,90,2013-07-25 02:15:00
9:35 PM,63.3,51.4,65,30.04,10.0,East,4.6,-,N/A,,Clear,80,2013-07-25 02:35:00
9:55 PM,63.0,52.0,67,30.05,10.0,Calm,Calm,-,N/A,,Clear,0,2013-07-25 02:55:00
10:15 PM,62.1,51.8,69,30.05,10.0,Calm,Calm,-,N/A,,Clear,0,2013-07-25 03:15:00
10:35 PM,61.3,52.0,71,30.06,10.0,Calm,Calm,-,N/A,,Clear,0,2013-07-25 03:35:00
10:55 PM,60.1,52.3,76,30.06,10.0,Calm,Calm,-,N/A,,Clear,0,2013-07-25 03:55:00
11:15 PM,59.9,52.2,76,30.06,10.0,Calm,Calm,-,N/A,,Clear,0,2013-07-25 04:15:00
11:35 PM,60.8,51.8,72,30.06,10.0,Calm,Calm,-,N/A,,Clear,0,2013-07-25 04:35:00
11:55 PM,59.0,52.0,78,30.06,10.0,Calm,Calm,-,N/A,,Clear,0,2013-07-25 04:55:00